Back to catalog

STARLINK-5700

AliveCommunicationsVLEO
NORAD 55607·PAYLOAD·🇺🇸 United States

Launched Feb 12, 2023 from Cape Canaveral Space Force Station

Loading…

Next Passes (next 24 hours)

TLE

FreshSource: CelesTrak SupGP

Epoch: Sep 14, 2026, 21:15 UTC

1 55607C 23020AQ  26257.88590278 -.00018506  00000+0 -67012-3 0  2576
2 55607  43.0045   5.8735 0002166 282.8616  54.9687 15.27594494    17

Track STARLINK-5700 in real time with AllMySat

Download on the App Store